Wind_Speed
44 47 50 51 52 53 53 53 53 53 53 54 55 57 58 59 59 58 58 58 61 60 58 57 58 59 59
50 48 49 52 54 54 53 53 54 55 57 57 59 59 60 60 61 59 59 63 61 60 58 58 59 58 56
55 54 51 51 53 53 54 55 57 59 61 62 62 63 62 60 61 59 61 64 61 56 64 59 59 57 56
55 56 57 57 58 58 59 61 61 62 64 64 65 65 63 62 59 61 64 59 62 63 59 59 57 56 56
61 63 64 65 65 65 66 66 66 66 65 67 67 66 67 62 62 65 63 63 62 60 60 58 59 56 56
65 69 70 73 71 72 73 73 74 72 73 71 63 51 60 58 60 61 65 60 58 60 61 63 62 56 57
71 72 60 61 64 65 61 58 55 63 66 56 48 56 60 68 63 64 65 67 65 62 61 60 60 58 57
71 66 71 70 71 74 80 74 76 61 65 66 63 75 71 68 67 66 65 65 64 63 61 59 59 58 59
70 75 73 74 75 76 77 80 77 72 72 83 81 77 74 69 67 66 66 66 64 62 61 61 61 61 62
80 82 79 77 76 77 76 78 76 76 74 77 76 76 72 68 67 66 65 61 61 59 60 62 62 64 64
77 76 76 76 76 77 78 78 78 77 76 79 77 74 72 68 65 66 67 65 63 62 62 63 68 66 67
76 77 77 76 77 79 80 80 80 79 79 79 78 75 74 70 66 65 73 70 67 69 71 67 69 71 72
77 77 78 78 79 79 79 80 80 81 81 81 79 76 76 73 74 72 76 74 78 76 76 72 68 68 63
80 80 82 82 83 84 84 84 84 84 85 86 85 83 82 80 80 79 80 81 81 83 82 72 65 63 57
86 86 86 86 84 83 83 84 83 83 82 81 82 82 82 81 80 76 74 76 70 65 64 61 63 64 57
76 76 77 77 78 78 79 80 80 80 80 80 80 78 76 73 70 68 64 61 60 59 61 59 58 56 52
80 80 79 79 79 78 79 80 80 81 80 80 78 77 75 72 68 66 64 60 55 54 53 51 49 51 50
Wind_Direction
273 275 279 281 283 285 286 287 288 288 290 291 295 297 299 300 302 303 303 304 304 310 309 309 316 313 316
277 276 278 280 282 283 284 285 286 288 289 291 293 295 296 298 299 299 302 304 301 307 307 313 313 314 313
280 282 282 281 282 283 284 284 285 286 287 290 292 293 294 296 295 297 301 300 300 300 312 307 311 311 307
281 282 283 283 283 283 282 283 285 286 287 289 288 291 292 294 292 294 302 296 296 303 304 304 307 304 303
281 282 282 282 283 284 284 284 285 285 286 287 287 289 287 288 286 296 297 300 299 299 302 302 304 298 303
281 281 285 283 282 282 283 284 284 284 285 287 286 278 288 294 299 293 302 301 299 301 300 302 302 298 301
284 282 285 283 281 281 281 288 294 295 287 279 282 292 296 300 295 298 298 300 300 299 298 297 298 296 301
276 286 280 283 288 288 291 287 294 287 282 295 286 291 300 298 297 296 296 297 298 298 297 296 296 295 297
282 284 285 286 287 287 289 291 294 292 286 289 293 294 295 295 293 293 294 295 295 294 294 295 296 296 298
282 284 285 285 285 285 286 288 288 288 286 286 289 291 291 290 290 292 292 290 291 293 294 294 294 298 298
283 282 282 283 284 285 287 287 287 287 287 287 289 290 290 289 288 289 289 286 288 288 290 292 292 293 298
280 281 281 281 281 282 283 284 285 286 286 287 288 288 289 288 289 288 290 281 284 286 287 289 291 296 299
280 280 281 281 282 283 283 284 285 285 285 284 284 284 287 287 284 282 282 281 283 290 289 290 294 295 288
281 281 282 282 283 283 283 282 282 282 282 283 283 283 282 281 280 282 283 285 283 283 284 286 288 287 277
282 281 281 282 281 282 282 282 282 282 283 284 285 285 286 287 287 286 284 282 282 283 282 282 282 277 270
284 284 284 284 284 284 284 284 284 284 284 283 283 284 284 285 285 285 284 284 284 282 277 278 271 268 271
285 285 285 285 285 286 286 286 285 285 284 283 282 282 281 280 279 279 280 281 283 284 285 284 263 264 265
Height
5772 5769 5766 5763 5760 5757 5754 5751 5748 5744 5740 5736 5732 5728 5724 5718 5714 5709 5703 5698 5691 5687 5681 5674 5666 5660 5653
5761 5759 5756 5752 5749 5746 5743 5740 5736 5732 5727 5724 5720 5715 5711 5706 5701 5695 5690 5684 5679 5673 5667 5662 5654 5647 5640
5747 5744 5744 5740 5737 5734 5730 5726 5723 5718 5713 5710 5706 5702 5697 5692 5687 5683 5678 5672 5667 5660 5653 5649 5643 5635 5629
5733 5731 5727 5725 5721 5718 5716 5710 5708 5704 5700 5697 5692 5688 5684 5679 5674 5669 5665 5660 5655 5649 5643 5637 5631 5625 5618
5719 5716 5715 5710 5704 5699 5697 5694 5693 5687 5683 5680 5676 5674 5671 5665 5660 5655 5650 5646 5641 5636 5629 5624 5618 5612 5607
5701 5698 5697 5693 5689 5684 5678 5675 5673 5671 5666 5664 5659 5656 5655 5648 5643 5639 5634 5631 5626 5621 5615 5609 5604 5599 5594
5684 5681 5673 5673 5669 5666 5662 5658 5657 5654 5647 5646 5642 5642 5639 5634 5629 5623 5619 5615 5609 5605 5600 5595 5591 5586 5582
5666 5662 5660 5654 5651 5645 5642 5640 5640 5638 5632 5627 5629 5625 5620 5616 5612 5607 5602 5598 5593 5589 5584 5581 5576 5572 5568
5650 5646 5644 5639 5634 5630 5627 5621 5620 5622 5617 5605 5610 5605 5603 5601 5595 5589 5585 5581 5577 5573 5570 5566 5562 5558 5554
5630 5626 5623 5620 5614 5610 5607 5603 5599 5600 5598 5589 5589 5583 5582 5583 5578 5571 5567 5564 5560 5557 5554 5551 5547 5544 5540
5610 5607 5603 5599 5594 5588 5583 5580 5578 5577 5574 5567 5568 5565 5560 5560 5561 5556 5551 5547 5544 5541 5538 5534 5530 5526 5524
5590 5587 5584 5580 5575 5571 5566 5562 5558 5556 5552 5549 5545 5544 5540 5539 5539 5538 5533 5530 5526 5524 5521 5517 5513 5509 5507
5568 5565 5562 5558 5555 5552 5547 5543 5540 5536 5532 5527 5525 5523 5521 5519 5516 5516 5514 5511 5508 5503 5502 5499 5495 5492 5490
5546 5543 5539 5536 5533 5529 5526 5522 5519 5516 5510 5505 5502 5499 5498 5497 5496 5494 5492 5488 5488 5484 5482 5481 5478 5476 5474
5522 5519 5516 5512 5509 5506 5502 5499 5495 5493 5490 5484 5480 5477 5474 5473 5472 5471 5469 5467 5466 5465 5463 5462 5460 5458 5455
5497 5494 5491 5488 5485 5482 5478 5474 5472 5469 5466 5462 5458 5455 5454 5454 5452 5449 5447 5447 5445 5445 5444 5444 5442 5440 5440
5475 5472 5468 5465 5461 5458 5454 5450 5447 5444 5441 5438 5435 5432 5431 5432 5432 5430 5430 5430 5429 5428 5427 5426 5424 5423 5422